Zurück zum Katalog

STARLINK-36956

AktivKommunikationVLEO
NORAD 68009·PAYLOAD·🇺🇸 United States

Gestartet Feb 27, 2026 von Vandenberg Space Force Base

Loading…

Nächste Überflüge (nächste 24 Stunden)

TLE

AktuellSource: CelesTrak SupGP

Epoche: Sep 15, 2026, 02:40 UTC

1 68009C 26039Z   26258.11159722 -.00024237  00000+0 -87755-3 0  2586
2 68009  43.0041  59.1331 0002112 281.4197  72.9257 15.27600520    18

Verfolge STARLINK-36956 in Echtzeit mit AllMySat

Download on the App Store